When you browse on this site, cookies collect data to enhance your experience and personalize the content and advertising you see.
Visit our Privacy Policy to learn more. By continuing to use the site, you agree to this use of cookies and data.
  • In Hungary
  • List of Countries
  • For 7 days
  • Water Temperature
  • Weather Map
  • News
  • Weather Widgets
  • user-avatar
    Login

    Hourly Weather Montebello

    Today, 25 August, Sunday

    Time Temperature Precipitation Wind Pressure Humidity
    00:00 +13°C° 0.1 mm 1 mps 583 mmHg 90%
    01:00 +12°C° 0.1 mm 1 mps 582 mmHg 92%
    02:00 +12°C° 0 mm 1 mps 582 mmHg 92%
    03:00 +11°C° 0 mm 0 mps 582 mmHg 93%
    04:00 +11°C° 0 mm 0 mps 582 mmHg 94%
    05:00 +12°C° 0 mm 0 mps 582 mmHg 92%
    06:00 +12°C° 0 mm 0 mps 582 mmHg 91%
    07:00 +12°C° 0 mm 0 mps 583 mmHg 89%
    08:00 +16°C° 0 mm 1 mps 584 mmHg 77%
    09:00 +20°C° 0 mm 1 mps 585 mmHg 65%
    10:00 +22°C° 0 mm 1 mps 587 mmHg 52%
    11:00 +24°C° 0.2 mm 1 mps 587 mmHg 49%
    12:00 +25°C° 0.2 mm 1 mps 587 mmHg 46%
    13:00 +26°C° 0.2 mm 1 mps 587 mmHg 42%
    14:00 +25°C° 0.2 mm 1 mps 586 mmHg 45%
    15:00 +24°C° 0.2 mm 1 mps 585 mmHg 47%
    16:00 +24°C° 0.2 mm 1 mps 584 mmHg 50%
    17:00 +21°C° 0.2 mm 1 mps 584 mmHg 60%
    18:00 +19°C° 0.2 mm 1 mps 583 mmHg 70%
    19:00 +15°C° 0.2 mm 1 mps 582 mmHg 80%
    20:00 +15°C° 0.7 mm 1 mps 582 mmHg 83%
    21:00 +14°C° 0.7 mm 1 mps 583 mmHg 86%
    22:00 +13°C° 0.7 mm 1 mps 583 mmHg 89%
    23:00 +13°C° 0.3 mm 1 mps 583 mmHg 90%

    Tomorrow, 26 August, Monday

    Time Temperature Precipitation Wind Pressure Humidity
    00:00 +13°C° 0.3 mm 1 mps 582 mmHg 91%
    01:00 +12°C° 0.3 mm 1 mps 582 mmHg 92%
    02:00 +12°C° 0 mm 1 mps 582 mmHg 93%
    03:00 +12°C° 0 mm 1 mps 582 mmHg 93%
    04:00 +11°C° 0 mm 0 mps 582 mmHg 93%
    05:00 +12°C° 0 mm 0 mps 582 mmHg 92%
    06:00 +12°C° 0 mm 0 mps 582 mmHg 90%
    07:00 +12°C° 0 mm 0 mps 583 mmHg 89%
    08:00 +15°C° 0 mm 0 mps 584 mmHg 78%
    09:00 +20°C° 0 mm 1 mps 585 mmHg 66%
    10:00 +22°C° 0 mm 1 mps 586 mmHg 55%
    11:00 +23°C° 0.2 mm 1 mps 586 mmHg 50%
    12:00 +24°C° 0.2 mm 1 mps 586 mmHg 46%
    13:00 +26°C° 0.2 mm 1 mps 586 mmHg 42%
    14:00 +25°C° 0.2 mm 1 mps 585 mmHg 46%
    15:00 +24°C° 0.2 mm 1 mps 584 mmHg 49%
    16:00 +23°C° 0.2 mm 1 mps 583 mmHg 53%
    17:00 +21°C° 0.5 mm 1 mps 583 mmHg 64%
    18:00 +18°C° 0.5 mm 1 mps 582 mmHg 75%
    19:00 +15°C° 0.5 mm 1 mps 582 mmHg 85%
    20:00 +14°C° 0.7 mm 1 mps 582 mmHg 87%
    21:00 +14°C° 0.7 mm 1 mps 582 mmHg 89%
    22:00 +13°C° 0.7 mm 1 mps 582 mmHg 92%
    23:00 +13°C° 0.2 mm 1 mps 582 mmHg 92%

    Day after tomorrow, 27 August, Tuesday

    Time Temperature Precipitation Wind Pressure Humidity
    00:00 +13°C° 0.2 mm 1 mps 582 mmHg 93%
    01:00 +12°C° 0.2 mm 1 mps 582 mmHg 94%
    02:00 +12°C° 0.1 mm 1 mps 582 mmHg 94%
    03:00 +11°C° 0.1 mm 0 mps 582 mmHg 94%
    04:00 +11°C° 0.1 mm 0 mps 581 mmHg 95%
    05:00 +12°C° 0.1 mm 0 mps 582 mmHg 94%
    06:00 +12°C° 0.1 mm 0 mps 582 mmHg 94%
    07:00 +12°C° 0.1 mm 0 mps 583 mmHg 94%
    08:00 +14°C° 0.2 mm 0 mps 584 mmHg 85%
    09:00 +18°C° 0.2 mm 1 mps 585 mmHg 76%
    10:00 +21°C° 0.2 mm 1 mps 586 mmHg 67%
    11:00 +22°C° 0.6 mm 1 mps 585 mmHg 63%
    12:00 +23°C° 0.6 mm 1 mps 585 mmHg 58%
    13:00 +24°C° 0.6 mm 1 mps 585 mmHg 54%
    14:00 +24°C° 0.4 mm 1 mps 584 mmHg 55%
    15:00 +23°C° 0.4 mm 1 mps 584 mmHg 56%
    16:00 +21°C° 0.4 mm 0 mps 584 mmHg 56%
    17:00 +21°C° 0.4 mm 1 mps 583 mmHg 67%
    18:00 +18°C° 0.4 mm 1 mps 582 mmHg 77%
    19:00 +15°C° 0.4 mm 1 mps 581 mmHg 87%
    20:00 +14°C° 0.8 mm 1 mps 582 mmHg 89%
    21:00 +13°C° 0.8 mm 1 mps 582 mmHg 92%
    22:00 +13°C° 0.8 mm 1 mps 582 mmHg 94%
    23:00 +12°C° 0.1 mm 1 mps 582 mmHg 94%

    28 August, Wednesday

    Time Temperature Precipitation Wind Pressure Humidity
    00:00 +12°C° 0.1 mm 1 mps 582 mmHg 94%
    01:00 +12°C° 0.1 mm 1 mps 582 mmHg 94%
    02:00 +12°C° 0 mm 1 mps 581 mmHg 94%
    03:00 +12°C° 0 mm 1 mps 581 mmHg 94%
    04:00 +11°C° 0 mm 0 mps 581 mmHg 95%
    05:00 +11°C° 0 mm 0 mps 582 mmHg 94%
    06:00 +12°C° 0 mm 0 mps 582 mmHg 93%
    07:00 +12°C° 0 mm 0 mps 583 mmHg 92%
    08:00 +15°C° 0 mm 0 mps 584 mmHg 80%
    09:00 +19°C° 0 mm 1 mps 586 mmHg 68%
    10:00 +22°C° 0 mm 1 mps 587 mmHg 57%
    11:00 +23°C° 0.2 mm 1 mps 587 mmHg 52%
    12:00 +24°C° 0.2 mm 1 mps 587 mmHg 47%
    13:00 +25°C° 0.2 mm 1 mps 586 mmHg 43%
    14:00 +25°C° 0.2 mm 1 mps 586 mmHg 44%
    15:00 +24°C° 0.2 mm 1 mps 585 mmHg 46%
    16:00 +24°C° 0.2 mm 1 mps 585 mmHg 48%
    17:00 +21°C° 0.2 mm 1 mps 584 mmHg 61%
    18:00 +18°C° 0.2 mm 1 mps 583 mmHg 73%
    19:00 +14°C° 0.2 mm 1 mps 582 mmHg 86%
    20:00 +14°C° 0.5 mm 1 mps 582 mmHg 88%
    21:00 +13°C° 0.5 mm 1 mps 582 mmHg 90%
    22:00 +12°C° 0.5 mm 1 mps 583 mmHg 91%
    23:00 +12°C° 0 mm 1 mps 582 mmHg 92%

    29 August, Thursday

    Time Temperature Precipitation Wind Pressure Humidity
    00:00 +12°C° 0 mm 1 mps 582 mmHg 92%
    01:00 +11°C° 0 mm 0 mps 582 mmHg 92%
    02:00 +11°C° 0 mm 0 mps 582 mmHg 92%
    03:00 +11°C° 0 mm 0 mps 582 mmHg 92%
    04:00 +11°C° 0 mm 0 mps 581 mmHg 92%
    05:00 +11°C° 0 mm 0 mps 582 mmHg 92%
    06:00 +12°C° 0 mm 0 mps 583 mmHg 91%
    07:00 +12°C° 0 mm 0 mps 583 mmHg 90%
    08:00 +15°C° 0 mm 0 mps 584 mmHg 79%
    09:00 +19°C° 0 mm 1 mps 586 mmHg 68%
    10:00 +22°C° 0 mm 1 mps 587 mmHg 57%
    11:00 +23°C° 0.1 mm 1 mps 587 mmHg 51%
    12:00 +24°C° 0.1 mm 1 mps 587 mmHg 45%
    13:00 +26°C° 0.1 mm 1 mps 587 mmHg 39%
    14:00 +25°C° 0.1 mm 1 mps 586 mmHg 40%
    15:00 +25°C° 0.1 mm 1 mps 586 mmHg 41%
    16:00 +24°C° 0.1 mm 1 mps 585 mmHg 41%
    17:00 +21°C° 0.4 mm 1 mps 584 mmHg 57%
    18:00 +18°C° 0.4 mm 1 mps 583 mmHg 72%
    19:00 +14°C° 0.4 mm 1 mps 582 mmHg 88%
    20:00 +13°C° 0.3 mm 1 mps 582 mmHg 90%
    21:00 +13°C° 0.3 mm 1 mps 582 mmHg 92%
    22:00 +12°C° 0.3 mm 1 mps 583 mmHg 94%
    23:00 +12°C° 0.1 mm 1 mps 582 mmHg 94%

    30 August, Friday

    Time Temperature Precipitation Wind Pressure Humidity
    00:00 +12°C° 0.1 mm 1 mps 582 mmHg 95%
    01:00 +11°C° 0.1 mm 1 mps 582 mmHg 95%
    02:00 +10°C° 0 mm 0 mps 582 mmHg 95%
    03:00 +10°C° 0 mm 0 mps 582 mmHg 96%
    04:00 +10°C° 0 mm 0 mps 581 mmHg 96%
    05:00 +11°C° 0 mm 0 mps 582 mmHg 94%
    06:00 +11°C° 0 mm 0 mps 583 mmHg 93%
    07:00 +12°C° 0 mm 0 mps 583 mmHg 91%
    08:00 +14°C° 0 mm 0 mps 584 mmHg 80%
    09:00 +19°C° 0 mm 1 mps 586 mmHg 70%
    10:00 +21°C° 0 mm 1 mps 587 mmHg 59%
    11:00 +22°C° 0.3 mm 1 mps 587 mmHg 56%
    12:00 +23°C° 0.3 mm 1 mps 586 mmHg 54%
    13:00 +24°C° 0.3 mm 1 mps 586 mmHg 51%
    14:00 +24°C° 0.3 mm 1 mps 586 mmHg 52%
    15:00 +22°C° 0.3 mm 0 mps 585 mmHg 52%
    16:00 +21°C° 0.3 mm 0 mps 584 mmHg 53%
    17:00 +21°C° 0.4 mm 1 mps 584 mmHg 65%
    18:00 +18°C° 0.4 mm 1 mps 583 mmHg 78%
    19:00 +14°C° 0.4 mm 1 mps 582 mmHg 90%
    20:00 +14°C° 0.7 mm 1 mps 582 mmHg 92%
    21:00 +13°C° 0.7 mm 1 mps 583 mmHg 94%
    22:00 +12°C° 0.7 mm 1 mps 583 mmHg 96%
    23:00 +12°C° 0.1 mm 1 mps 583 mmHg 96%
    Show more